EW7581 Weather Reports


time (UTC)temp
F
wind
direction
speed
knots
gust
knots
rain 1hr
in
rain 24hr
in
rain mn
in
humidity
%
barometer
mb
20210723163508 49 90 0.0 0.0 0.00 0.08 0.00 87 1009.1
20210723162446 49 90 0.0 0.0 0.00 0.10 0.00 87 1009.1
20210723161456 48 112 0.0 0.0 0.00 0.10 0.00 87 1009.1
20210723160515 48 112 0.0 0.0 0.00 0.10 0.00 87 1008.8
20210723155516 47 180 0.0 0.0 0.00 0.10 0.00 86 1008.8
20210723154518 47 157 0.0 0.0 0.00 0.10 0.00 86 1009.1
20210723153502 47 270 0.0 0.0 0.00 0.10 0.00 86 1008.8
20210723152450 46 202 0.0 0.0 0.00 0.10 0.00 86 1008.8
20210723151510 46 247 0.0 0.0 0.00 0.10 0.00 86 1008.4
20210723150519 46 202 0.0 0.0 0.00 0.10 0.00 86 1008.4
20210723145524 45 202 0.0 0.0 0.00 0.10 0.00 85 1008.4
20210723144457 45 112 0.0 0.0 0.00 0.10 0.00 85 1008.4
20210723143434 45 180 0.0 0.0 0.00 0.10 0.00 85 1008.4
20210723142447 44 202 0.0 0.0 0.00 0.10 0.00 85 1008.4
20210723141409 44 247 0.0 0.0 0.00 0.10 0.00 85 1008.4
20210723140353 44 247 0.0 0.0 0.00 0.10 0.00 85 1008.8
20210723135333 44 247 0.0 0.0 0.00 0.10 0.00 84 1008.8
20210723134330 44 247 0.0 0.0 0.00 0.10 0.00 84 1008.4
20210723133349 43 247 0.0 0.0 0.00 0.10 0.00 84 1008.4
20210723132359 43 247 0.0 0.0 0.00 0.10 0.00 84 1008.4
20210723131359 43 247 0.0 0.0 0.00 0.10 0.00 83 1008.4
20210723130348 43 247 0.0 0.0 0.00 0.10 0.00 83 1008.4
20210723125358 43 247 0.0 0.0 0.00 0.10 0.00 83 1008.4
20210723124350 44 247 0.0 0.0 0.00 0.10 0.00 83 1008.4
20210723123346 44 247 0.0 0.0 0.00 0.10 0.00 83 1008.4
20210723122400 44 247 0.0 0.0 0.00 0.12 0.00 82 1008.4
20210723121405 45 247 0.0 0.0 0.00 0.12 0.00 82 1008.4
20210723120338 45 247 0.0 0.0 0.00 0.12 0.00 82 1008.4
20210723115306 45 247 0.0 0.0 0.00 0.12 0.00 82 1008.4
20210723114320 45 247 0.0 0.0 0.00 0.12 0.00 82 1008.4
20210723113322 46 247 0.0 0.0 0.00 0.12 0.00 82 1008.4
20210723112311 46 247 0.0 0.0 0.00 0.12 0.00 82 1008.4
20210723111257 46 247 0.0 0.0 0.00 0.14 0.00 81 1008.1
20210723110318 47 247 0.0 0.0 0.00 0.14 0.00 81 1008.1
20210723105321 47 247 0.0 0.0 0.00 0.14 0.00 81 1008.4
20210723104304 47 247 0.0 0.0 0.00 0.14 0.00 80 1008.4
20210723103250 47 247 0.0 0.0 0.00 0.14 0.00 80 1008.1
20210723102305 47 247 0.0 0.0 0.00 0.14 0.00 80 1008.1
20210723101228 48 247 0.0 0.0 0.00 0.16 0.00 80 1008.1
20210723100206 49 247 0.0 0.0 0.00 0.16 0.00 79 1008.1
20210723095157 49 247 0.0 0.0 0.00 0.16 0.00 79 1008.1
20210723094144 49 247 0.0 0.0 0.00 0.16 0.00 78 1008.4
20210723093115 50 247 0.0 0.0 0.00 0.18 0.00 78 1008.4
20210723092041 51 225 0.0 0.0 0.00 0.18 0.00 78 1008.4
20210723091005 51 90 0.0 0.0 0.00 0.18 0.00 77 1008.1
20210723090018 52 247 0.0 0.0 0.00 0.18 0.00 77 1008.4
20210723085016 52 247 0.0 0.0 0.00 0.18 0.00 76 1008.1
20210723084010 53 247 0.0 0.0 0.00 0.18 0.00 76 1008.1
20210723083031 53 247 0.0 0.0 0.00 0.18 0.00 76 1008.1
20210723082016 54 225 0.0 0.0 0.00 0.18 0.00 75 1008.4
20210723081027 54 247 0.0 0.0 0.00 0.18 0.00 74 1008.4
20210723075954 55 157 0.0 0.0 0.00 0.18 0.18 73 1008.1
20210723074940 56 157 0.0 0.0 0.00 0.18 0.18 73 1008.1
20210723073944 56 270 0.0 0.0 0.00 0.18 0.18 70 1008.1
20210723072941 57 270 0.0 0.0 0.00 0.18 0.18 70 1008.1
20210723071958 58 157 0.0 0.0 0.00 0.18 0.18 68 1007.7
20210723070934 59 112 0.0 0.0 0.00 0.18 0.18 68 1007.7
20210723065944 60 135 0.0 0.0 0.00 0.18 0.18 66 1007.7
20210723064937 60 157 0.0 0.0 0.00 0.18 0.18 65 1007.7
20210723063934 61 112 0.0 0.0 0.00 0.18 0.18 63 1007.4
20210723062948 62 135 0.0 3.5 0.00 0.18 0.18 62 1007.4
20210723062000 63 157 1.7 1.7 0.00 0.18 0.18 61 1007.4
20210723060931 64 67 0.0 0.0 0.00 0.18 0.18 59 1007.4
20210723055910 65 45 0.9 0.9 0.00 0.20 0.18 59 1007.4
20210723054858 67 315 0.0 0.0 0.00 0.20 0.18 57 1007.1
20210723053852 67 180 0.0 0.0 0.00 0.20 0.18 58 1007.1
20210723052909 66 67 0.9 3.5 0.00 0.20 0.18 60 1006.7
20210723051854 64 90 3.5 3.5 0.00 0.20 0.18 61 1006.7
20210723050901 64 90 0.9 3.5 0.00 0.20 0.18 61 1006.7
20210723045900 65 90 2.6 3.5 0.00 0.20 0.18 61 1006.7
20210723044838 65 67 1.7 2.6 0.00 0.20 0.18 60 1006.4
20210723043832 66 112 0.9 0.9 0.00 0.20 0.18 60 1006.4
20210723042816 67 112 1.7 2.6 0.00 0.20 0.18 60 1006.4
20210723041821 67 0 0.9 0.9 0.00 0.20 0.18 61 1006.4
20210723040827 67 90 0.0 0.0 0.00 0.20 0.18 61 1006.4
20210723035815 67 45 0.9 0.9 0.00 0.20 0.18 61 1006.4
20210723034817 67 45 0.9 0.9 0.00 0.22 0.18 62 1006.4
20210723033824 67 45 0.0 0.0 0.00 0.22 0.18 63 1006.4
20210723032828 67 180 0.0 0.9 0.00 0.22 0.18 64 1006.0
20210723031844 67 90 0.0 0.0 0.00 0.22 0.18 67 1006.0
20210723030834 68 0 0.0 0.0 0.00 0.22 0.18 67 1006.0
20210723025810 67 22 0.0 0.0 0.00 0.24 0.18 68 1006.0
20210723024741 67 0 0.0 0.0 0.00 0.24 0.18 67 1006.0
20210723023749 68 157 0.9 1.7 0.00 0.24 0.18 67 1006.0
20210723022716 67 0 2.6 3.5 0.00 0.24 0.18 67 1006.0
20210723021711 67 337 0.9 0.9 0.00 0.24 0.18 68 1005.7
20210723020712 67 270 3.5 4.3 0.00 0.24 0.18 67 1006.0
20210723015701 67 90 1.7 4.3 0.00 0.24 0.18 66 1005.7
20210723014636 67 22 0.9 0.9 0.00 0.24 0.18 66 1005.7
20210723013635 68 315 0.0 0.9 0.00 0.24 0.18 65 1005.7
20210723012614 68 270 0.9 5.2 0.00 0.26 0.18 65 1006.0
20210723011629 67 22 4.3 5.2 0.00 0.26 0.18 67 1006.0
20210723010639 67 270 0.0 2.6 0.00 0.26 0.18 68 1006.0
20210723005651 67 180 0.0 0.0 0.00 0.28 0.18 69 1006.0
20210723004622 67 22 0.0 0.0 0.00 0.28 0.18 70 1006.0
20210723003634 67 315 0.0 0.9 0.00 0.30 0.18 72 1006.0
20210723002639 66 292 0.9 0.9 0.00 0.30 0.18 73 1006.0
20210723001609 65 157 0.9 0.9 0.00 0.32 0.18 73 1006.0
20210723000621 65 22 0.9 2.6 0.00 0.32 0.18 74 1006.0
20210722235638 65 292 0.0 0.0 0.00 0.34 0.18 75 1006.0
20210722234655 65 0 0.9 1.7 0.00 0.34 0.18 77 1006.0
20210722233655 65 90 0.9 1.7 0.00 0.36 0.18 78 1005.7
20210722232653 64 90 0.0 0.0 0.00 0.38 0.18 78 1006.0
20210722231641 64 0 0.0 0.0 0.00 0.38 0.18 79 1005.7
20210722230615 64 45 0.9 0.9 0.00 0.42 0.18 79 1005.7
20210722225630 64 0 0.0 0.0 0.00 0.42 0.18 80 1006.0
20210722224558 63 337 0.0 2.6 0.00 0.46 0.18 82 1005.7
20210722223557 63 90 0.0 0.0 0.00 0.46 0.18 83 1005.7
20210722222605 62 337 0.0 0.0 0.00 0.48 0.18 83 1006.0
20210722221615 62 337 0.0 0.9 0.00 0.50 0.18 85 1006.0
20210722220629 62 67 0.0 0.9 0.00 0.50 0.18 86 1006.0
20210722215557 61 135 0.0 0.0 0.00 0.50 0.18 87 1005.7
20210722214603 60 67 0.9 0.9 0.00 0.53 0.18 86 1005.7
20210722213546 60 0 0.9 2.6 0.00 0.53 0.18 87 1005.7
20210722212556 60 0 0.0 0.0 0.00 0.55 0.18 87 1005.7
20210722211603 60 22 0.0 0.9 0.00 0.55 0.18 87 1005.7
20210722210547 60 315 0.0 0.9 0.00 0.57 0.18 87 1005.7
20210722205512 60 45 0.0 0.9 0.00 0.57 0.18 87 1005.7
20210722204448 60 22 0.9 0.9 0.00 0.57 0.18 88 1005.7
20210722203450 59 90 0.0 0.0 0.00 0.57 0.18 89 1005.7
20210722202418 59 112 0.0 0.0 0.02 0.57 0.18 89 1005.7
20210722201412 58 315 0.0 0.0 0.02 0.57 0.18 90 1005.7
20210722200427 58 67 0.0 0.0 0.02 0.57 0.18 90 1005.4
20210722195420 58 135 0.9 0.9 0.02 0.57 0.18 90 1005.4
20210722194407 58 45 0.0 0.0 0.02 0.57 0.18 90 1005.4
20210722193414 58 45 0.0 0.0 0.04 0.57 0.18 90 1005.4
20210722192401 57 135 0.0 0.0 0.02 0.55 0.16 91 1005.4
20210722191332 57 22 0.0 0.0 0.02 0.55 0.16 91 1005.4
20210722190342 57 45 0.0 0.0 0.02 0.55 0.16 91 1005.4
20210722185343 56 135 0.0 0.0 0.02 0.55 0.16 91 1005.0
20210722184349 56 90 0.0 0.0 0.02 0.55 0.16 91 1005.0
20210722183315 56 157 0.0 0.9 0.02 0.53 0.14 92 1005.0
20210722182256 56 67 0.0 0.0 0.02 0.53 0.14 92 1005.0
20210722181316 56 45 0.9 0.9 0.02 0.53 0.14 92 1005.0
20210722180322 56 90 0.0 0.0 0.02 0.53 0.14 92 1005.0
20210722175329 55 157 0.0 0.0 0.04 0.53 0.14 92 1005.0
20210722174345 55 112 0.0 0.0 0.04 0.53 0.14 92 1004.7
20210722173313 55 67 0.0 0.0 0.02 0.50 0.12 92 1004.7
20210722172305 55 90 0.0 0.0 0.04 0.50 0.12 92 1004.7
20210722171259 55 67 0.9 0.9 0.04 0.50 0.12 92 1004.7
20210722170233 54 112 0.0 0.0 0.02 0.48 0.10 92 1004.4
20210722165237 54 112 0.0 0.0 0.02 0.48 0.10 92 1004.4
20210722164219 54 112 0.0 0.0 0.02 0.50 0.10 92 1004.4